sat.trackr.live / text

‹ back to catalog

CRYOSAT 2

NORAD 36508 · 2010-013A

PAYLOAD ACTIVE UNKNOWN

§ Identity

Operator
Country
ESA
Launch date
2010-04-08
Launch site
TYMSC
Launch vehicle
Mass (kg)
RCS (m²)
2.56

Purposes: science

External: N2YO · Heavens-Above · Gunter

§ Orbital elements

Epoch: 2026-09-13T03:52:28.324416Z

Period
99.18 min
Inclination
92.0281°
Eccentricity
0.0002387
Mean motion
14.51904387 rev/d
Perigee alt
717.7 km
Apogee alt
721.1 km
Semi-major
7,097.6 km
B*
1.3210e-5
RAAN
298.6662°
Arg perigee
84.6576°
Mean anomaly
275.4903°
Rev number
87,084

§ Raw data

CRYOSAT 21 36508U 10013A   26256.16143894  .00000056  00000+0  13210-4 0  99952 36508  92.0281 298.6662 0002387  84.6576 275.4903 14.51904387870840

JSON: /api/v1/satellites/36508 · /tle

For live sub-satellite position, see the globe view (requires WebGL).

§ Visibility from observer

Set your observer location to see the next 7 days of passes ≥ 10°. The values pass through the URL so the page stays shareable.

No JS? Fill the form by hand. The geolocation button needs JavaScript.

§ Radio — SatNOGS DB

ModeDescriptionDownlinkUplink
S-Band telemetry 2.201 GHz

1 transmitter · refreshed weekly from db.satnogs.org